Zurück zum Katalog

STARLINK-37141

AktivKommunikationVLEO
NORAD 68249·PAYLOAD·🇺🇸 United States

Gestartet Mar 17, 2026 von Vandenberg Space Force Base

Loading…

Nächste Überflüge (nächste 24 Stunden)

TLE

AktuellSource: CelesTrak SupGP

Epoche: Sep 15, 2026, 02:50 UTC

1 68249C 26054T   26258.11854167  .00035000  00000+0  10342-2 0  2589
2 68249  53.1558 126.6797 0001241  87.5880 122.0771 15.34368218    12

Verfolge STARLINK-37141 in Echtzeit mit AllMySat

Download on the App Store